Regional Weather Roundup
Issued by NWS

Home | Current Version | Previous Version | Text Only | Print | Product List | Glossary On
Versions: 1 2 3 4 5 6 7 8 9 10 11 12 13 14 15 16 17 18 19 20 21 22 23 24 25 26 27 28 29 30 31 32 33 34 35 36 37 38 39 40 41 42 43 44 45 46 47 48 49 50
428
ASUS43 KDTX 230510
RWRMI
MICHIGAN HOURLY REGIONAL WEATHER ROUNDUP
NATIONAL WEATHER SERVICE DETROIT/PONTIAC MI
100 AM EDT TUE MAY 23 2017

NOTE: "FAIR" INDICATES FEW OR NO CLOUDS BELOW 12,000 FEET WITH NO
SIGNIFICANT WEATHER AND/OR OBSTRUCTION TO VISIBILITY.

MIZ047>049-052>055-059>063-066>070-074>076-081>083-230600-
SOUTHEAST LOWER MICHIGAN

CITY           SKY/WX    TMP DP  RH WIND       PRES   REMARKS
ADRIAN         CLOUDY    56  49  77 SW7       29.96S
ALMA           CLOUDY    58  49  71 SW7       29.89S
ANN ARBOR      CLOUDY    55  49  80 CALM      29.94S
BAD AXE        CLOUDY    55  49  80 CALM      29.90F
CARO           CLOUDY    56  48  73 S5        29.89F
DETROIT CITY   PTCLDY    59  47  64 SW6       29.95R
DETROIT        MOCLDY    58  48  69 S5        29.96R
FLINT          PTCLDY    60  47  61 S7        29.91S
GROSSE ILE     PTCLDY    60  50  69 SW5       29.94S
HILLSDALE      CLEAR     55  46  71 S3        29.94F
HOWELL         CLOUDY    60  46  59 S7        29.92S

CITY           SKY/WX    TMP DP  RH WIND       PRES   REMARKS
JACKSON        PTCLDY    61  47  59 S8        29.93S
LAMBERTVILLE   CLOUDY    56  48  74 S5        29.96S
LANSING        PTCLDY    61  47  59 SW9       29.91S
LAPEER         CLOUDY    60  47  63 S7        29.92S
MASON          PTCLDY    60  49  67 CALM      29.92S
MONROE         MOCLDY    57  47  69 S5        29.95R
MT. CLEMENS    CLEAR     55  49  81 S6        29.92S
PONTIAC        MOCLDY    61  47  59 S7        29.93R
PORT HOPE        N/A     55  51  86 CALM      29.88F
PORT HURON     CLEAR     52  46  82 CALM      29.93S
TRI CITIES     CLOUDY    60  49  66 SW8       29.89S
MIDLAND        CLOUDY    56  49  78 CALM      29.88R
TROY           PTCLDY    61  45  54 SW5       29.95S
SAGINAW HB     CLOUDY    61  45  55 S12       29.88S
$$
MIZ043>046-050>051-056>058-064>065-071>073-077>080-230600-
SOUTHWEST LOWER MICHIGAN

CITY           SKY/WX    TMP DP  RH WIND       PRES   REMARKS
BATTLE CREEK   PTCLDY    60  50  69 SW10      29.92S
BENTON HARBOR  PTCLDY    61  49  64 SW10      29.91S
BIG RAPIDS     CLOUDY    54  51  90 SW8       29.87S
COLDWATER      MOCLDY    61  48  63 S5        29.93F
FREMONT        CLOUDY    56  53  89 CALM      29.87S
HOLLAND        CLOUDY    60  51  72 SW17G24   29.90S
GRAND RAPIDS   CLOUDY    63  51  65 SW12      29.89S
IONIA          FAIR      60  47  64 SW7       29.88F
KALAMAZOO      CLOUDY    59  48  67 SW6       29.92S
LUDINGTON      CLEAR     48  47  96 CALM      29.84S
MARSHALL       CLOUDY    62  48  60 S6        29.92S
MOUNT PLEASANT MOCLDY    56  50  81 CALM      29.88S
MUSKEGON       PTCLDY    58  51  78 SW18G28   29.87F
SOUTH HAVEN    CLOUDY    61  52  71 SW13G18   29.90F
$$
MIZ016>042-230600-
NORTHERN LOWER MICHIGAN

CITY           SKY/WX    TMP DP  RH WIND       PRES   REMARKS
ALPENA         MOCLDY    51  45  79 N9        29.88F
BEAVER ISLAND  CLEAR     43  42  97 CALM      29.86S FOG
BELLAIRE       CLOUDY    52  48  89 CALM      29.87F
CADILLAC       PTCLDY    51  47  88 CALM      29.86S
CHARLEVOIX     CLOUDY    49  48  97 SW6       29.89R
FRANKFORT      MOCLDY    51  45  78 CALM      29.85F
GAYLORD        CLOUDY    51  46  83 CALM      29.87S
GRAYLING       PTCLDY    50  45  84 CALM      29.88S
HARBOR SPRINGS CLOUDY    47  47 100 CALM      29.86S FOG
HOUGHTON LAKE  PTCLDY    53  48  83 SW3       29.88S
MANISTEE       PTCLDY    49  44  83 CALM      29.86S
OSCODA         LGT RAIN  57  49  74 SW12      29.87F
PELLSTON       CLOUDY    50  47  89 W6        29.86S
ROGERS CITY    CLOUDY    48  46  95 S3        29.87F
TRAVERSE CITY  MOCLDY    55  46  71 W3        29.85F
$$
MIZ007>008-015-230600-
EASTERN UPPER MICHIGAN

CITY           SKY/WX    TMP DP  RH WIND       PRES   REMARKS
KINROSS        CLOUDY    48  47  96 SE5       29.85
MACKINAC ISLAN CLOUDY    48  48 100 CALM      29.85R FOG
NEWBERRY       CLEAR     43  42  97 W3        29.84S
S. S. MARIE    CLOUDY    49  47  93 SE3       29.84S
MUNISING         N/A     43  43 100 S7        29.84S
$$
MIZ004>006-011>014-085-230600-
CENTRAL UPPER MICHIGAN

CITY           SKY/WX    TMP DP  RH WIND       PRES   REMARKS
MANISTIQUE     FOG       37  34  89 CALM      29.84S VSB 1/2
ESCANABA       CLEAR     41  41 100 CALM      29.85S FOG
MENOMINEE      FOG       45  45 100 CALM      29.86S VSB 1/2
SAWYER-GWINN   CLEAR     38  37  95 CALM      29.85R
$$
MIZ001>003-009>011-084-230600-
WESTERN UPPER MICHIGAN

CITY           SKY/WX    TMP DP  RH WIND       PRES   REMARKS
IRON MOUNTAIN  CLEAR     39  35  86 CALM      29.83S
HOUGHTON       CLOUDY    49  42  77 W9        29.82S
COPPER HARBOR    N/A     48  43  82 CALM      29.81S
IRONWOOD       CLOUDY    45  44  97 NE3       29.83F
$$

ABBREVIATIONS USED IN REMARKS
   TC - TEMPERATURE IN CELSIUS
  WCI - WIND CHILL INDEX
   HX - HEAT INDEX
  VSB - VISIBILITY





USA.gov is the U.S. government's official web portal to all federal, state and local government web resources and services.